Year,Month,Day,Hour,Minute,Value (Times are PST for temperature in C)
2017,01,18,00,00,8.70
2017,01,18,00,01,8.70
2017,01,18,00,02,8.70
2017,01,18,00,03,8.70
2017,01,18,00,04,8.80
2017,01,18,00,05,8.70
2017,01,18,00,06,8.60
2017,01,18,00,07,8.60
2017,01,18,00,08,8.60
2017,01,18,00,09,8.60
2017,01,18,00,10,8.60
2017,01,18,00,11,8.60
2017,01,18,00,12,8.60
2017,01,18,00,13,8.60
2017,01,18,00,14,8.60
2017,01,18,00,15,8.60
2017,01,18,09,18,8.50
2017,01,18,09,19,8.60
2017,01,18,09,20,8.60
2017,01,18,09,21,8.60
2017,01,18,09,22,8.60
2017,01,18,09,23,8.60
2017,01,18,09,24,8.60
2017,01,18,09,25,8.70
2017,01,18,09,26,8.70
2017,01,18,09,27,8.70
2017,01,18,09,28,8.70
2017,01,18,09,29,8.70
2017,01,18,09,30,8.70
2017,01,18,09,31,8.70
2017,01,18,09,32,8.70
2017,01,18,09,33,8.70
2017,01,18,09,34,8.70
2017,01,18,09,35,8.70
2017,01,18,09,36,8.70
2017,01,18,09,37,8.70
2017,01,18,09,38,8.70
2017,01,18,09,39,8.60
2017,01,18,09,40,8.60
2017,01,18,09,41,8.50
2017,01,18,09,42,8.50
2017,01,18,09,43,8.40
2017,01,18,09,44,8.40
2017,01,18,09,45,8.40
2017,01,18,09,46,8.30
2017,01,18,09,47,8.30
2017,01,18,09,48,8.30
2017,01,18,09,49,8.30
2017,01,18,09,50,8.30
2017,01,18,09,51,8.30
2017,01,18,09,52,8.30
2017,01,18,09,53,8.30
2017,01,18,09,54,8.30
2017,01,18,09,55,8.30
2017,01,18,09,56,8.30
2017,01,18,09,57,8.30
2017,01,18,09,58,8.30
2017,01,18,09,59,8.30
2017,01,18,10,00,8.30
2017,01,18,10,01,8.30
2017,01,18,10,02,8.30
2017,01,18,10,03,8.30
2017,01,18,10,04,8.40
2017,01,18,10,05,8.40
2017,01,18,10,06,8.40
2017,01,18,10,07,8.40
2017,01,18,10,08,8.40
2017,01,18,10,09,8.40
2017,01,18,10,10,8.40
2017,01,18,10,11,8.40
2017,01,18,10,12,8.40
2017,01,18,10,13,8.40
2017,01,18,10,14,8.40
2017,01,18,10,15,8.50
2017,01,18,10,16,8.50
2017,01,18,10,17,8.50
2017,01,18,10,18,8.50
2017,01,18,10,19,8.50
2017,01,18,10,20,8.50
2017,01,18,10,21,8.60
2017,01,18,10,22,8.60
2017,01,18,10,23,8.60
2017,01,18,10,24,8.60
2017,01,18,10,25,8.60
2017,01,18,10,26,8.60
2017,01,18,10,27,8.60
2017,01,18,10,28,8.60
2017,01,18,10,29,8.70
2017,01,18,10,30,8.70
2017,01,18,10,31,8.70
2017,01,18,10,32,8.70
2017,01,18,10,33,8.70
2017,01,18,10,34,8.70
2017,01,18,10,35,8.70
2017,01,18,10,36,8.70
2017,01,18,10,37,8.70
2017,01,18,10,38,8.70
2017,01,18,10,39,8.70
2017,01,18,10,40,8.70
2017,01,18,10,41,8.70
2017,01,18,10,42,8.70
2017,01,18,10,43,8.70
2017,01,18,10,44,8.70
2017,01,18,10,45,8.70
2017,01,18,10,46,8.70
2017,01,18,10,47,8.70
2017,01,18,10,48,8.70
2017,01,18,10,49,8.70
2017,01,18,10,50,8.70
2017,01,18,10,51,8.70
2017,01,18,10,52,8.70
2017,01,18,10,53,8.70
2017,01,18,10,54,8.70
2017,01,18,10,55,8.70
2017,01,18,10,56,8.70
2017,01,18,10,57,8.70
2017,01,18,10,58,8.70
2017,01,18,10,59,8.70
2017,01,18,11,00,8.70
2017,01,18,11,01,8.70
2017,01,18,11,02,8.70
2017,01,18,11,03,8.70
2017,01,18,11,04,8.70
2017,01,18,11,05,8.70
2017,01,18,11,06,8.70
2017,01,18,11,07,8.70
2017,01,18,11,08,8.80
2017,01,18,11,09,8.80
2017,01,18,11,10,8.80
2017,01,18,11,11,8.80
2017,01,18,11,12,8.80
2017,01,18,11,13,8.80
2017,01,18,11,14,8.80
2017,01,18,11,15,8.80
2017,01,18,11,16,8.90
2017,01,18,11,17,8.90
2017,01,18,11,18,8.90
2017,01,18,11,19,8.90
2017,01,18,11,20,8.90
2017,01,18,11,21,8.90
2017,01,18,11,22,8.90
2017,01,18,11,23,8.90
2017,01,18,11,24,9.00
2017,01,18,11,25,9.00
2017,01,18,11,26,9.00
2017,01,18,11,27,9.00
2017,01,18,11,28,9.00
2017,01,18,11,29,9.00
2017,01,18,11,30,9.00
2017,01,18,11,31,9.00
2017,01,18,11,32,9.00
2017,01,18,11,33,9.00
2017,01,18,11,34,9.00
2017,01,18,11,35,9.00
2017,01,18,11,36,9.00
2017,01,18,11,37,9.00
2017,01,18,11,38,9.00
2017,01,18,11,39,9.00
2017,01,18,11,40,9.00
2017,01,18,11,41,9.00
2017,01,18,11,42,9.00
2017,01,18,11,43,9.00
2017,01,18,11,44,9.00
2017,01,18,11,45,9.00
2017,01,18,11,46,9.10
2017,01,18,11,47,9.10
2017,01,18,11,48,9.10
2017,01,18,11,49,9.10
2017,01,18,11,50,9.00
2017,01,18,11,51,9.00
2017,01,18,11,52,9.00
2017,01,18,11,53,9.00
2017,01,18,11,54,9.00
2017,01,18,11,55,9.00
2017,01,18,11,56,9.10
2017,01,18,11,57,9.10
2017,01,18,11,58,9.10
2017,01,18,11,59,9.10
2017,01,18,12,00,9.10
2017,01,18,12,01,9.20
2017,01,18,12,02,9.20
2017,01,18,12,03,9.20
2017,01,18,12,04,9.20
2017,01,18,12,05,9.20
2017,01,18,12,06,9.20
2017,01,18,12,07,9.20
2017,01,18,12,08,9.20
2017,01,18,12,09,9.20
2017,01,18,12,10,9.20
2017,01,18,12,11,9.20
2017,01,18,12,12,9.20
2017,01,18,12,13,9.20
2017,01,18,12,14,9.20
2017,01,18,12,15,9.20
2017,01,18,12,16,9.20
2017,01,18,12,17,9.20
2017,01,18,12,18,9.20
2017,01,18,12,19,9.20
2017,01,18,12,20,9.10
2017,01,18,12,21,9.10
2017,01,18,12,22,9.10
2017,01,18,12,23,9.10
2017,01,18,12,24,9.10
2017,01,18,12,25,9.10
2017,01,18,12,26,9.10
2017,01,18,12,27,9.10
2017,01,18,12,28,9.10
2017,01,18,12,29,9.10
2017,01,18,12,30,9.10
2017,01,18,12,31,9.20
2017,01,18,12,32,9.20
2017,01,18,12,33,9.20
2017,01,18,12,34,9.20
2017,01,18,12,35,9.10
2017,01,18,12,36,9.20
2017,01,18,12,37,9.10
2017,01,18,12,38,9.10
2017,01,18,12,39,9.10
2017,01,18,12,40,9.10
2017,01,18,12,41,9.20
2017,01,18,12,42,9.20
2017,01,18,12,43,9.20
2017,01,18,12,44,9.30
2017,01,18,12,45,9.40
2017,01,18,12,46,9.70
2017,01,18,12,47,9.80
2017,01,18,12,48,9.90
2017,01,18,12,49,10.10
2017,01,18,12,50,10.20
2017,01,18,12,51,10.30
2017,01,18,12,52,10.50
2017,01,18,12,53,10.60
2017,01,18,12,54,10.80
2017,01,18,12,55,11.00
2017,01,18,12,56,11.20
2017,01,18,12,57,11.30
2017,01,18,12,58,11.30
2017,01,18,12,59,11.30
2017,01,18,13,00,11.30
2017,01,18,13,01,11.30
2017,01,18,13,02,11.30
2017,01,18,13,03,11.30
2017,01,18,13,04,11.30
2017,01,18,13,05,11.30
2017,01,18,13,06,11.30
2017,01,18,13,07,11.20
2017,01,18,13,08,11.20
2017,01,18,13,09,11.20
2017,01,18,13,10,11.20
2017,01,18,13,11,11.20
2017,01,18,13,12,11.20
2017,01,18,13,13,11.20
2017,01,18,13,14,11.20
2017,01,18,13,15,11.30
2017,01,18,13,16,11.30
2017,01,18,13,17,11.30
2017,01,18,13,18,11.30
2017,01,18,13,19,11.30
2017,01,18,13,20,11.30
2017,01,18,13,21,11.20
2017,01,18,13,22,11.20
2017,01,18,13,23,11.10
2017,01,18,13,24,11.10
2017,01,18,13,25,11.00
2017,01,18,13,26,11.00
2017,01,18,13,27,10.90
2017,01,18,13,28,11.00
2017,01,18,13,29,11.00
2017,01,18,13,30,11.00
2017,01,18,13,31,10.90
2017,01,18,13,32,10.90
2017,01,18,13,33,10.90
2017,01,18,13,34,10.80
2017,01,18,13,35,10.80
2017,01,18,13,36,10.80
2017,01,18,13,37,10.80
2017,01,18,13,38,10.80
2017,01,18,13,39,10.90
2017,01,18,13,40,10.90
2017,01,18,13,41,11.00
2017,01,18,13,42,11.10
2017,01,18,13,43,11.10
2017,01,18,13,44,11.10
2017,01,18,13,45,11.20
2017,01,18,13,46,11.20
2017,01,18,13,47,11.20
2017,01,18,13,48,11.20
2017,01,18,13,49,11.20
2017,01,18,13,50,11.20
2017,01,18,13,51,11.20
2017,01,18,13,52,11.20
2017,01,18,13,53,11.20
2017,01,18,13,54,11.20
2017,01,18,13,55,11.10
2017,01,18,13,56,11.10
2017,01,18,13,57,11.10
2017,01,18,13,58,11.20
2017,01,18,13,59,11.20
2017,01,18,14,00,11.20
2017,01,18,14,01,11.20
2017,01,18,14,02,11.30
2017,01,18,14,03,11.30
2017,01,18,14,04,11.30
2017,01,18,14,05,11.30
2017,01,18,14,06,11.40
2017,01,18,14,07,11.40
2017,01,18,14,08,11.30
2017,01,18,14,09,11.30
2017,01,18,14,10,11.30
2017,01,18,14,11,11.30
2017,01,18,14,12,11.30
2017,01,18,14,13,11.20
2017,01,18,14,14,11.20
2017,01,18,14,15,11.20
2017,01,18,14,16,11.20
2017,01,18,14,17,11.30
2017,01,18,14,18,11.30
2017,01,18,14,19,11.30
2017,01,18,14,20,11.40
2017,01,18,14,21,11.40
2017,01,18,14,22,11.40
2017,01,18,14,23,11.40
2017,01,18,14,24,11.40
2017,01,18,14,25,11.40
2017,01,18,14,26,11.40
2017,01,18,14,27,11.40
2017,01,18,14,28,11.40
2017,01,18,14,29,11.50
2017,01,18,14,30,11.50
2017,01,18,14,31,11.50
2017,01,18,14,32,11.50
2017,01,18,14,33,11.60
2017,01,18,14,34,11.60
2017,01,18,14,35,11.60
2017,01,18,14,36,11.60
2017,01,18,14,37,11.50
2017,01,18,14,38,11.40
2017,01,18,14,39,11.30
2017,01,18,14,40,11.20
2017,01,18,14,41,11.10
2017,01,18,14,42,11.00
2017,01,18,14,43,10.90
2017,01,18,14,44,10.80
2017,01,18,14,45,10.80
2017,01,18,14,46,10.70
2017,01,18,14,47,10.70
2017,01,18,14,48,10.60
2017,01,18,14,49,10.60
2017,01,18,14,50,10.50
2017,01,18,14,51,10.50
2017,01,18,14,52,10.40
2017,01,18,14,53,10.40
2017,01,18,14,54,10.40
2017,01,18,14,55,10.40
2017,01,18,14,56,10.30
2017,01,18,14,57,10.30
2017,01,18,14,58,10.30
2017,01,18,14,59,10.30
2017,01,18,15,00,10.30
2017,01,18,15,01,10.30
2017,01,18,15,02,10.20
2017,01,18,15,03,10.20
2017,01,18,15,04,10.20
2017,01,18,15,05,10.20
2017,01,18,15,06,10.20
2017,01,18,15,07,10.20
2017,01,18,15,08,10.20
2017,01,18,15,09,10.20
2017,01,18,15,10,10.20
2017,01,18,15,11,10.20
2017,01,18,15,12,10.20
2017,01,18,15,13,10.20
2017,01,18,15,14,10.20
2017,01,18,15,15,10.20
2017,01,18,15,16,10.20
2017,01,18,15,17,10.20
2017,01,18,15,18,10.20
2017,01,18,15,19,10.20
2017,01,18,15,20,10.20
2017,01,18,15,21,10.20
2017,01,18,15,22,10.20
2017,01,18,15,23,10.20
2017,01,18,15,24,10.20
2017,01,18,15,25,10.10
2017,01,18,15,26,10.10
2017,01,18,15,27,10.10
2017,01,18,15,28,10.10
2017,01,18,15,29,10.10
2017,01,18,15,30,10.10
2017,01,18,15,31,10.10
2017,01,18,15,32,10.10
2017,01,18,15,33,10.10
2017,01,18,15,34,10.10
2017,01,18,15,35,10.10
2017,01,18,15,36,10.10
2017,01,18,15,37,10.10
2017,01,18,15,38,10.10
2017,01,18,15,39,10.10
2017,01,18,15,40,10.10
2017,01,18,15,41,10.10
2017,01,18,15,42,10.00
2017,01,18,15,43,10.00
2017,01,18,15,44,10.00
2017,01,18,15,45,10.00
2017,01,18,15,46,10.00
2017,01,18,15,47,10.00
2017,01,18,15,48,10.00
2017,01,18,15,49,10.00
2017,01,18,15,50,9.90
2017,01,18,15,51,9.90
2017,01,18,15,52,9.90
2017,01,18,15,53,9.90
2017,01,18,15,54,9.90
2017,01,18,15,55,9.90
2017,01,18,15,56,9.90
2017,01,18,15,57,9.90
2017,01,18,15,58,9.90
2017,01,18,15,59,9.90
2017,01,18,16,00,9.90
2017,01,18,16,01,9.90
2017,01,18,16,02,9.90
2017,01,18,16,03,9.90
2017,01,18,16,04,9.90
2017,01,18,16,05,9.90
2017,01,18,16,06,9.90
2017,01,18,16,07,9.90
2017,01,18,16,08,9.90
2017,01,18,16,09,9.80
2017,01,18,16,10,9.80
2017,01,18,16,11,9.80
2017,01,18,16,12,9.80
2017,01,18,16,13,9.80
2017,01,18,16,14,9.80
2017,01,18,16,15,9.80
2017,01,18,16,16,9.80
2017,01,18,16,17,9.80
2017,01,18,16,18,9.80
2017,01,18,16,19,9.80
2017,01,18,16,20,9.80
2017,01,18,16,21,9.80
2017,01,18,16,22,9.80
2017,01,18,16,23,9.80
2017,01,18,16,24,9.80
2017,01,18,16,25,9.80
2017,01,18,16,26,9.80
2017,01,18,16,27,9.70
2017,01,18,16,28,9.70
2017,01,18,16,29,9.70
2017,01,18,16,30,9.70
2017,01,18,16,31,9.70
2017,01,18,16,32,9.70
2017,01,18,16,33,9.70
2017,01,18,16,34,9.70
2017,01,18,16,35,9.60
2017,01,18,16,36,9.60
2017,01,18,16,37,9.60
2017,01,18,16,38,9.60
2017,01,18,16,39,9.60
2017,01,18,16,40,9.60
2017,01,18,16,41,9.60
2017,01,18,16,42,9.60
2017,01,18,16,43,9.50
2017,01,18,16,44,9.50
2017,01,18,16,45,9.50
2017,01,18,16,46,9.50
2017,01,18,16,47,9.40
2017,01,18,16,48,9.40
2017,01,18,16,49,9.40
2017,01,18,16,50,9.40
2017,01,18,16,51,9.40
2017,01,18,16,52,9.40
2017,01,18,16,53,9.40
2017,01,18,16,54,9.40
2017,01,18,16,55,9.30
2017,01,18,16,56,9.30
2017,01,18,16,57,9.30
2017,01,18,16,58,9.30
2017,01,18,16,59,9.30
2017,01,18,17,00,9.30
2017,01,18,17,01,9.30
2017,01,18,17,02,9.30
2017,01,18,17,03,9.30
2017,01,18,17,04,9.30
2017,01,18,17,05,9.30
2017,01,18,17,06,9.30
2017,01,18,17,07,9.30
2017,01,18,17,08,9.20
2017,01,18,17,09,9.30
2017,01,18,17,10,9.30
2017,01,18,17,11,9.30
2017,01,18,17,12,9.30
2017,01,18,17,13,9.30
2017,01,18,17,14,9.30
2017,01,18,17,15,9.30
2017,01,18,17,16,9.30
2017,01,18,17,17,9.30
2017,01,18,17,18,9.30
2017,01,18,17,19,9.30
2017,01,18,17,20,9.20
2017,01,18,17,21,9.20
2017,01,18,17,22,9.20
2017,01,18,17,23,9.20
2017,01,18,17,24,9.20
2017,01,18,17,25,9.20
2017,01,18,17,26,9.10
2017,01,18,17,27,9.10
2017,01,18,17,28,9.00
2017,01,18,17,29,9.00
2017,01,18,17,30,9.00
2017,01,18,17,31,8.90
2017,01,18,17,32,8.90
2017,01,18,17,33,8.90
2017,01,18,17,34,8.80
2017,01,18,17,35,8.80
2017,01,18,17,36,8.70
2017,01,18,17,37,8.70
2017,01,18,17,38,8.70
2017,01,18,17,39,8.80
2017,01,18,17,40,9.00
2017,01,18,17,41,9.20
2017,01,18,17,42,9.30
2017,01,18,17,43,9.30
2017,01,18,17,44,9.30
2017,01,18,17,45,9.30
2017,01,18,17,46,9.30
2017,01,18,17,47,9.50
2017,01,18,17,48,9.60
2017,01,18,17,49,9.70
2017,01,18,17,50,9.80
2017,01,18,17,51,9.80
2017,01,18,17,52,9.80
2017,01,18,17,53,9.90
2017,01,18,17,54,9.90
2017,01,18,17,55,9.90
2017,01,18,17,56,9.80
2017,01,18,17,57,9.80
2017,01,18,17,58,9.80
2017,01,18,17,59,9.80
2017,01,18,18,00,9.80
2017,01,18,18,01,9.80
2017,01,18,18,02,9.80
2017,01,18,18,03,9.80
2017,01,18,18,04,9.80
2017,01,18,18,05,9.70
2017,01,18,18,06,9.70
2017,01,18,18,07,9.70
2017,01,18,18,08,9.70
2017,01,18,18,09,9.60
2017,01,18,18,10,9.60
2017,01,18,18,11,9.60
2017,01,18,18,12,9.50
2017,01,18,18,13,9.50
2017,01,18,18,14,9.50
2017,01,18,18,15,9.40
2017,01,18,18,16,9.40
2017,01,18,18,17,9.40
2017,01,18,18,18,9.40
2017,01,18,18,19,9.30
2017,01,18,18,20,9.30
2017,01,18,18,21,9.30
2017,01,18,18,22,9.30
2017,01,18,18,23,9.30
2017,01,18,18,24,9.20
2017,01,18,18,25,9.20
2017,01,18,18,26,9.20
2017,01,18,18,27,9.20
2017,01,18,18,28,9.20
2017,01,18,18,29,9.20
2017,01,18,18,30,9.20
2017,01,18,18,31,9.20
2017,01,18,18,32,9.10
2017,01,18,18,33,9.10
2017,01,18,18,34,9.00
2017,01,18,18,35,9.00
2017,01,18,18,36,8.90
2017,01,18,18,37,8.90
2017,01,18,18,38,8.90
2017,01,18,18,39,8.80
2017,01,18,18,40,8.80
2017,01,18,18,41,8.80
2017,01,18,18,42,8.80
2017,01,18,18,43,8.70
2017,01,18,18,44,8.70
2017,01,18,18,45,8.70
2017,01,18,18,46,8.70
2017,01,18,18,47,8.70
2017,01,18,18,48,8.70
2017,01,18,18,49,8.60
2017,01,18,18,50,8.60
2017,01,18,18,51,8.60
2017,01,18,18,52,8.60
2017,01,18,18,53,8.50
2017,01,18,18,54,8.50
2017,01,18,18,55,8.40
2017,01,18,18,56,8.40
2017,01,18,18,57,8.30
2017,01,18,18,58,8.30
2017,01,18,18,59,8.20
2017,01,18,19,00,8.20
2017,01,18,19,01,8.20
2017,01,18,19,02,8.20
2017,01,18,19,03,8.20
2017,01,18,19,04,8.20
2017,01,18,19,05,8.20
2017,01,18,19,06,8.20
2017,01,18,19,07,8.20
2017,01,18,19,08,8.20
2017,01,18,19,09,8.20
2017,01,18,19,10,8.20
2017,01,18,19,11,8.20
2017,01,18,19,12,8.20
2017,01,18,19,13,8.10
2017,01,18,19,14,8.10
2017,01,18,19,15,8.10
2017,01,18,19,16,8.10
2017,01,18,19,17,8.10
2017,01,18,19,18,8.10
2017,01,18,19,19,8.10
2017,01,18,19,20,8.10
2017,01,18,19,21,8.10
2017,01,18,19,22,8.10
2017,01,18,19,23,8.10
2017,01,18,19,24,8.10
2017,01,18,19,25,8.10
2017,01,18,19,26,8.10
2017,01,18,19,27,8.00
2017,01,18,19,28,8.00
2017,01,18,19,29,8.00
2017,01,18,19,30,7.90
2017,01,18,19,31,7.90
2017,01,18,19,32,7.90
2017,01,18,19,33,7.90
2017,01,18,19,34,7.80
2017,01,18,19,35,7.80
2017,01,18,19,36,7.80
2017,01,18,19,37,7.80
2017,01,18,19,38,7.80
2017,01,18,19,39,7.70
2017,01,18,19,40,7.70
2017,01,18,19,41,7.70
2017,01,18,19,42,7.70
2017,01,18,19,43,7.70
2017,01,18,19,44,7.70
2017,01,18,19,45,7.70
2017,01,18,19,46,7.70
2017,01,18,19,47,7.70
2017,01,18,19,48,7.70
2017,01,18,19,49,7.70
2017,01,18,19,50,7.70
2017,01,18,19,51,7.70
2017,01,18,19,52,7.80
2017,01,18,19,53,7.80
2017,01,18,19,54,7.80
2017,01,18,19,55,7.90
2017,01,18,19,56,7.90
2017,01,18,19,57,7.90
2017,01,18,19,58,7.90
2017,01,18,19,59,7.90
2017,01,18,20,00,7.90
2017,01,18,20,01,7.90
2017,01,18,20,02,8.00
2017,01,18,20,03,8.00
2017,01,18,20,04,8.00
2017,01,18,20,05,8.00
2017,01,18,20,06,8.00
2017,01,18,20,07,8.00
2017,01,18,20,08,8.00
2017,01,18,20,09,8.00
2017,01,18,20,10,8.00
2017,01,18,20,11,7.90
2017,01,18,20,12,7.90
2017,01,18,20,13,7.90
2017,01,18,20,14,7.90
2017,01,18,20,15,7.90
2017,01,18,20,16,7.90
2017,01,18,20,17,7.90
2017,01,18,20,18,7.90
2017,01,18,20,19,7.90
2017,01,18,20,20,7.90
2017,01,18,20,21,7.90
2017,01,18,20,22,7.90
2017,01,18,20,23,7.90
2017,01,18,20,24,7.90
2017,01,18,20,25,7.90
2017,01,18,20,26,7.90
2017,01,18,20,27,7.90
2017,01,18,20,28,7.80
2017,01,18,20,29,7.80
2017,01,18,20,30,7.80
2017,01,18,20,31,7.80
2017,01,18,20,32,7.80
2017,01,18,20,33,7.80
2017,01,18,20,34,7.80
2017,01,18,20,35,7.80
2017,01,18,20,36,7.80
2017,01,18,20,37,7.80
2017,01,18,20,38,7.80
2017,01,18,20,39,7.80
2017,01,18,20,40,7.80
2017,01,18,20,41,7.80
2017,01,18,20,42,7.80
2017,01,18,20,43,7.80
2017,01,18,20,44,7.80
2017,01,18,20,45,7.80
2017,01,18,20,46,7.80
2017,01,18,20,47,7.80
2017,01,18,20,48,7.70
2017,01,18,20,49,7.70
2017,01,18,20,50,7.70
2017,01,18,20,51,7.70
2017,01,18,20,52,7.70
2017,01,18,20,53,7.60
2017,01,18,20,54,7.60
2017,01,18,20,55,7.60
2017,01,18,20,56,7.60
2017,01,18,20,57,7.60
2017,01,18,20,58,7.60
2017,01,18,20,59,7.60
2017,01,18,21,00,7.60
2017,01,18,21,01,7.50
2017,01,18,21,02,7.50
2017,01,18,21,03,7.50
2017,01,18,21,04,7.50
2017,01,18,21,05,7.50
2017,01,18,21,06,7.50
2017,01,18,21,07,7.40
2017,01,18,21,08,7.40
2017,01,18,21,09,7.40
2017,01,18,21,10,7.40
2017,01,18,21,11,7.40
2017,01,18,21,12,7.30
2017,01,18,21,13,7.30
2017,01,18,21,14,7.30
2017,01,18,21,15,7.20
2017,01,18,21,16,7.20
2017,01,18,21,17,7.20
2017,01,18,21,18,7.20
2017,01,18,21,19,7.20
2017,01,18,21,20,7.20
2017,01,18,21,21,7.20
2017,01,18,21,22,7.20
2017,01,18,21,23,7.20
2017,01,18,21,24,7.20
2017,01,18,21,25,7.20
2017,01,18,21,26,7.20
2017,01,18,21,27,7.20
2017,01,18,21,28,7.20
2017,01,18,21,29,7.20
2017,01,18,21,30,7.20
2017,01,18,21,31,7.20
2017,01,18,21,32,7.20
2017,01,18,21,33,7.20
2017,01,18,21,34,7.20
2017,01,18,21,35,7.20
2017,01,18,21,36,7.20
2017,01,18,21,37,7.20
2017,01,18,21,38,7.20
2017,01,18,21,39,7.20
2017,01,18,21,40,7.10
2017,01,18,21,41,7.10
2017,01,18,21,42,7.10
2017,01,18,21,43,7.10
2017,01,18,21,44,7.10
2017,01,18,21,45,7.10
2017,01,18,21,46,7.10
2017,01,18,21,47,7.10
2017,01,18,21,48,7.10
2017,01,18,21,49,7.10
2017,01,18,21,50,7.10
2017,01,18,21,51,7.10
2017,01,18,21,52,7.10
2017,01,18,21,53,7.10
2017,01,18,21,54,7.10
2017,01,18,21,55,7.10
2017,01,18,21,56,7.10
2017,01,18,21,57,7.10
2017,01,18,21,58,7.10
2017,01,18,21,59,7.10
2017,01,18,22,00,7.10
2017,01,18,22,01,7.10
2017,01,18,22,02,7.10
2017,01,18,22,03,7.10
2017,01,18,22,04,7.10
2017,01,18,22,05,7.10
2017,01,18,22,06,7.10
2017,01,18,22,07,7.10
2017,01,18,22,08,7.10
2017,01,18,22,09,7.00
2017,01,18,22,10,7.00
2017,01,18,22,11,7.00
2017,01,18,22,12,7.00
2017,01,18,22,13,7.00
2017,01,18,22,14,7.00
2017,01,18,22,15,7.00
2017,01,18,22,16,7.00
2017,01,18,22,17,7.00
2017,01,18,22,18,7.00
2017,01,18,22,19,7.00
2017,01,18,22,20,7.00
2017,01,18,22,21,7.00
2017,01,18,22,22,7.00
2017,01,18,22,23,7.00
2017,01,18,22,24,6.90
2017,01,18,22,25,6.90
2017,01,18,22,26,6.90
2017,01,18,22,27,6.90
2017,01,18,22,28,6.90
2017,01,18,22,29,6.90
2017,01,18,22,30,6.90
2017,01,18,22,31,6.90
2017,01,18,22,32,6.90
2017,01,18,22,33,6.90
2017,01,18,22,34,6.90
2017,01,18,22,35,6.90
2017,01,18,22,36,6.90
2017,01,18,22,37,6.90
2017,01,18,22,38,6.90
2017,01,18,22,39,6.80
2017,01,18,22,40,6.80
2017,01,18,22,41,6.80
2017,01,18,22,42,6.80
2017,01,18,22,43,6.80
2017,01,18,22,44,6.80
2017,01,18,22,45,6.80
2017,01,18,22,46,6.80
2017,01,18,22,47,6.80
2017,01,18,22,48,6.80
2017,01,18,22,49,6.80
2017,01,18,22,50,6.80
2017,01,18,22,51,6.80
2017,01,18,22,52,6.80
2017,01,18,22,53,6.70
2017,01,18,22,54,6.70
2017,01,18,22,55,6.70
2017,01,18,22,56,6.70
2017,01,18,22,57,6.70
2017,01,18,22,58,6.70
2017,01,18,22,59,6.70
2017,01,18,23,00,6.70
2017,01,18,23,01,6.70
2017,01,18,23,02,6.60
2017,01,18,23,03,6.60
2017,01,18,23,04,6.50
2017,01,18,23,05,6.50
2017,01,18,23,06,6.50
2017,01,18,23,07,6.50
2017,01,18,23,08,6.50
2017,01,18,23,09,6.50
2017,01,18,23,10,6.50
2017,01,18,23,11,6.50
2017,01,18,23,12,6.60
2017,01,18,23,13,6.60
2017,01,18,23,14,6.60
2017,01,18,23,15,6.60
2017,01,18,23,16,6.60
2017,01,18,23,17,6.60
2017,01,18,23,18,6.50
2017,01,18,23,19,6.50
2017,01,18,23,20,6.50
2017,01,18,23,21,6.50
2017,01,18,23,22,6.40
2017,01,18,23,23,6.40
2017,01,18,23,24,6.40
2017,01,18,23,25,6.30
2017,01,18,23,26,6.30
2017,01,18,23,27,6.30
2017,01,18,23,28,6.30
2017,01,18,23,29,6.40
2017,01,18,23,30,6.40
2017,01,18,23,31,6.50
2017,01,18,23,32,6.50
2017,01,18,23,33,6.50
2017,01,18,23,34,6.50
2017,01,18,23,35,6.50
2017,01,18,23,36,6.50
2017,01,18,23,37,6.50
2017,01,18,23,38,6.40
2017,01,18,23,39,6.40
2017,01,18,23,40,6.40
2017,01,18,23,41,6.40
2017,01,18,23,42,6.40
2017,01,18,23,43,6.40
2017,01,18,23,44,6.30
2017,01,18,23,45,6.30
2017,01,18,23,46,6.20
2017,01,18,23,47,6.20
2017,01,18,23,48,6.20
2017,01,18,23,49,6.20
2017,01,18,23,50,6.20
2017,01,18,23,51,6.20
2017,01,18,23,52,6.20
2017,01,18,23,53,6.20
2017,01,18,23,54,6.20
2017,01,18,23,55,6.20
2017,01,18,23,56,6.20
2017,01,18,23,57,6.20
2017,01,18,23,58,6.20
2017,01,18,23,59,6.20
